Content
SEND FEEDBACK

Daily
Averages
Monthly
Summary
United States of America

NEW YORK - CENTRAL PARK, NEW YORK


Home > North America > United States > New York
Elevation: 14 feet     Latitude: 40 47N     Longitude: 073 58W

WEATHER
 
SELECT A DAY
Number of Records: 145,770;   Date Range: 11/1/95 - 4/14/14
 
SHARE

PRINT THIS DATA

[ ← Previous Day ]
WEATHER ALMANAC - DECEMBER 22, 2013
[ Next Day → ]
[ °C ]   °F
Weather ElementAverageHighLow
Temperature65.9 °F70 °F (9:51 am)62.1 °F (2:24 am)
Dewpoint56.3 °F60.1 °F (9:40 am)53.1 °F (6:51 pm)
Humidity71.3 %80 % (3:51 am)59 % (1:51 pm)
Barometer29.89 in29.96 in (9:51 pm)29.81 in (5:51 am)
Wind Speed5.4 mph9.2 mph (10:51 am)
Wind Gust23 mph (10:51 am)
Weather ElementAverage
Visibility10 mi
Wind DirectionE (94.4 °)

Weather ElementTotal
Precipitation---
Cooling Degree Days1.1 (Base 65)
Growing Degree Days16.1 (Base 50)
Averaged from 27 records on December 22, 2013
WEATHER CONDITIONS BREAKOUT
WIND DIRECTION BREAKOUT
WEATHER BY HOUR - DECEMBER 22, 2013
[ °C ]   °F
Local TimeTemperatureDewpointHumidityBarometerVisibilityWind DirectionWind SpeedGust SpeedPrecipitationEventsConditions
1:51 AM63.0 °F54.0 °F72 %29.87 in10.0 miVariable3.5 mphClear
2:24 AM62.1 °F54.0 °F75 %29.90 in10.0 miVariable3.5 mphOvercast
2:51 AM62.1 °F54.0 °F75 %29.87 in10.0 miCalmOvercast
3:51 AM62.1 °F55.9 °F80 %29.85 in10.0 miCalm0.00 inOvercast
4:51 AM64.0 °F57.9 °F80 %29.83 in10.0 miVariable3.5 mph0.00 inOvercast
5:51 AM66.9 °F59.0 °F76 %29.81 in10.0 miVariable5.8 mphOvercast
6:18 AM64.9 °F57.9 °F78 %29.84 in10.0 miSouth (180°)6.9 mphMostly Cloudy
6:36 AM64.9 °F57.9 °F78 %29.85 in10.0 miSSW (200°)6.9 mphMostly Cloudy
6:51 AM64.9 °F57.9 °F78 %29.84 in10.0 miVariable4.6 mphOvercast
7:51 AM66.0 °F57.9 °F75 %29.85 in10.0 miSouth (170°)6.9 mphOvercast
8:51 AM66.9 °F59.0 °F76 %29.86 in10.0 miSW (220°)8.1 mphOvercast
9:40 AM69.1 °F60.1 °F73 %29.91 in10.0 miVariable3.5 mph17.3 mph0.00 inOvercast
9:51 AM70.0 °F60.1 °F71 %29.89 in10.0 miNorth0.00 inMostly Cloudy
10:51 AM70.0 °F59.0 °F68 %29.93 in10.0 miWSW (240°)9.2 mph23.0 mphOvercast
11:51 AM70.0 °F57.9 °F65 %29.90 in10.0 miVariable5.8 mphOvercast
12:51 PM70.0 °F57.0 °F63 %29.89 in10.0 miVariable4.6 mphOvercast
1:51 PM70.0 °F55.0 °F59 %29.86 in10.0 miVariable6.9 mphOvercast
2:51 PM66.9 °F55.9 °F68 %29.86 in10.0 miSouth (180°)8.1 mph18.4 mphScattered Clouds
3:51 PM64.9 °F55.9 °F73 %29.87 in10.0 miSouth (190°)9.2 mph0.00 inPartly Cloudy
4:51 PM66.9 °F55.0 °F66 %29.88 in10.0 miSouth (190°)5.8 mphPartly Cloudy
5:51 PM66.0 °F54.0 °F65 %29.91 in10.0 miWSW (250°)9.2 mph23.0 mph0.00 inMostly Cloudy
6:51 PM64.9 °F53.1 °F65 %29.92 in10.0 miWSW (250°)5.8 mph20.7 mphClear
7:51 PM66.0 °F54.0 °F65 %29.94 in10.0 miVariable5.8 mphClear
8:51 PM64.9 °F54.0 °F68 %29.94 in10.0 miWSW (250°)5.8 mphClear
9:51 PM64.0 °F54.0 °F70 %29.96 in10.0 miSW (230°)3.5 mph17.3 mphClear
10:51 PM64.0 °F54.0 °F70 %29.96 in10.0 miVariable4.6 mphClear
11:51 PM64.0 °F55.0 °F73 %29.96 in10.0 miVariable3.5 mphClear
Hourly data recorded from KNYC, located 0.33 miles away from New York - Central Park, New York







STORIES FROM OUR PARTNERS